�������r�C�����j�^�v���󋵏��
Date,Time,5�C6���@���p�r�C��,����,����(m/s)
2023/12/04,00:00,3.7,�k��,3.6
2023/12/04,00:10,3.7,�k��,2.8
2023/12/04,00:20,3.6,���k��,1.5
2023/12/04,00:30,3.7,�k��,2.3
2023/12/04,00:40,3.8,�k��,4.2
2023/12/04,00:50,3.9,�k��,5.1
2023/12/04,01:00,3.7,�k��,5.3
2023/12/04,01:10,3.9,�k��,7.0
2023/12/04,01:20,3.7,�k��,5.4
2023/12/04,01:30,3.7,�k��,5.5
2023/12/04,01:40,3.9,�k��,6.0
2023/12/04,01:50,3.7,�k�k��,7.0
2023/12/04,02:00,3.8,�k��,7.8
2023/12/04,02:10,3.6,�k��,8.1
2023/12/04,02:20,3.6,�k��,8.2
2023/12/04,02:30,3.9,�k��,7.2
2023/12/04,02:40,3.8,�k��,5.9
2023/12/04,02:50,3.8,�k��,6.2
2023/12/04,03:00,3.6,�k��,6.6
2023/12/04,03:10,3.8,�k��,7.4
2023/12/04,03:20,3.9,�k��,6.7
2023/12/04,03:30,3.6,�k��,8.3
2023/12/04,03:40,3.8,�k��,7.9
2023/12/04,03:50,3.7,�k��,8.5
2023/12/04,04:00,3.6,�k��,9.2
2023/12/04,04:10,3.6,�k��,8.9
2023/12/04,04:20,3.8,�k��,7.8
2023/12/04,04:30,3.9,�k��,6.0
2023/12/04,04:40,3.7,�k��,7.6
2023/12/04,04:50,3.6,�k��,6.8
2023/12/04,05:00,3.7,�k��,7.4
2023/12/04,05:10,3.6,�k��,7.6
2023/12/04,05:20,3.9,�k��,8.3
2023/12/04,05:30,3.8,�k��,8.0
2023/12/04,05:40,3.7,�k�k��,8.4
2023/12/04,05:50,3.8,�k��,7.1
2023/12/04,06:00,3.7,�k�k��,7.0
2023/12/04,06:10,3.9,�k��,7.9
2023/12/04,06:20,3.7,�k��,7.2
2023/12/04,06:30,3.6,�k��,8.0
2023/12/04,06:40,3.8,�k��,6.5
2023/12/04,06:50,3.8,�k��,6.9
2023/12/04,07:00,3.7,�k��,7.2
2023/12/04,07:10,3.9,�k��,7.3
2023/12/04,07:20,3.7,�k��,8.0
2023/12/04,07:30,3.8,�k��,6.7
2023/12/04,07:40,3.7,�k��,7.9
2023/12/04,07:50,3.7,�k��,7.5
2023/12/04,08:00,3.7,�k��,7.1
2023/12/04,08:10,3.7,�k��,5.6
2023/12/04,08:20,3.9,�k��,4.2
2023/12/04,08:30,3.7,�k��,6.1
2023/12/04,08:40,3.8,�k��,5.1
2023/12/04,08:50,3.7,�k��,5.5
2023/12/04,09:00,3.7,�k�k��,6.0
2023/12/04,09:10,3.9,�k�k��,7.4
2023/12/04,09:20,3.8,�k�k��,6.6
2023/12/04,09:30,3.6,�k�k��,8.4
2023/12/04,09:40,3.8,�k�k��,7.4
2023/12/04,09:50,3.6,�k,5.8
2023/12/04,10:00,3.9,�k,5.7
2023/12/04,10:10,3.8,�k�k��,6.5
2023/12/04,10:20,3.8,�k�k��,6.0
2023/12/04,10:30,3.6,�k,6.5
2023/12/04,10:40,3.8,�k,6.2
2023/12/04,10:50,3.7,�k�k��,7.3
2023/12/04,11:00,3.8,�k,6.8
2023/12/04,11:10,3.6,�k,7.0
2023/12/04,11:20,3.9,�k,8.2
2023/12/04,11:30,3.8,�k�k��,7.9
2023/12/04,11:40,3.8,�k�k��,7.5
2023/12/04,11:50,3.7,�k,7.9
2023/12/04,12:00,3.5,�k�k��,7.2
2023/12/04,12:10,3.7,�k�k��,7.0
2023/12/04,12:20,3.9,�k�k��,7.3
2023/12/04,12:30,3.7,�k�k��,6.9
2023/12/04,12:40,3.8,�k�k��,7.8
2023/12/04,12:50,3.8,�k�k��,6.7
2023/12/04,13:00,3.7,�k�k��,7.2
2023/12/04,13:10,3.7,�k,6.8
2023/12/04,13:20,3.7,�k,4.9
2023/12/04,13:30,3.7,�k�k��,4.9
2023/12/04,13:40,3.8,�k,4.8
2023/12/04,13:50,3.7,�k�k��,4.7
2023/12/04,14:00,3.7,�k,5.1
2023/12/04,14:10,3.7,�k�k��,5.3
2023/12/04,14:20,3.6,�k�k��,4.7
2023/12/04,14:30,3.6,�k,5.7
2023/12/04,14:40,3.7,�k�k��,5.4
2023/12/04,14:50,3.6,�k�k��,5.2
2023/12/04,15:00,3.7,�k,5.4
2023/12/04,15:10,3.6,�k,4.0
2023/12/04,15:20,3.7,�k,4.7
2023/12/04,15:30,3.7,�k,4.3
2023/12/04,15:40,3.8,�k,3.6
2023/12/04,15:50,3.8,�k,3.4
2023/12/04,16:00,3.7,�k,3.9
2023/12/04,16:10,3.6,�k�k��,3.3
2023/12/04,16:20,3.7,�k�k��,3.4
2023/12/04,16:30,3.7,�k�k��,3.7
2023/12/04,16:40,3.7,�k�k��,3.7
2023/12/04,16:50,3.7,�k��,3.1
2023/12/04,17:00,3.6,�k��,2.9
2023/12/04,17:10,3.8,�k��,3.8
2023/12/04,17:20,3.8,�k��,3.9
2023/12/04,17:30,3.6,���k��,3.3
2023/12/04,17:40,3.8,���k��,3.3
2023/12/04,17:50,3.7,��,3.6
2023/12/04,18:00,3.7,���k��,4.7
2023/12/04,18:10,3.6,���k��,4.4
2023/12/04,18:20,3.7,���k��,4.4
2023/12/04,18:30,3.6,���k��,4.6
2023/12/04,18:40,3.7,���k��,4.4
2023/12/04,18:50,3.7,���k��,4.3
2023/12/04,19:00,3.8,���k��,3.8
2023/12/04,19:10,3.8,���k��,4.2
2023/12/04,19:20,3.9,�k��,3.6
2023/12/04,19:30,3.6,���k��,3.6
2023/12/04,19:40,3.8,���k��,2.2
2023/12/04,19:50,3.8,���k��,2.6
2023/12/04,20:00,3.7,���k��,2.6
2023/12/04,20:10,3.7,���k��,3.2
2023/12/04,20:20,3.7,��,2.9
2023/12/04,20:30,3.6,��,2.6
2023/12/04,20:40,3.6,��,2.5
2023/12/04,20:50,3.6,��,2.5
2023/12/04,21:00,3.7,��,3.4
2023/12/04,21:10,3.8,��,3.9
2023/12/04,21:20,3.7,��,2.0
2023/12/04,21:30,3.6,��,2.0
2023/12/04,21:40,3.6,��,2.2
2023/12/04,21:50,3.8,��,2.8
2023/12/04,22:00,3.8,���k��,3.5
2023/12/04,22:10,3.9,��,3.1
2023/12/04,22:20,3.7,���쐼,4.0
2023/12/04,22:30,3.7,���쐼,4.5
2023/12/04,22:40,3.8,��,5.4
2023/12/04,22:50,3.8,��,5.3
2023/12/04,23:00,3.8,��,2.5
2023/12/04,23:10,3.8,��,2.8
2023/12/04,23:20,3.8,��,3.9
2023/12/04,23:30,3.9,���k��,2.6
2023/12/04,23:40,3.6,��,2.9
2023/12/04,23:50,3.7,��,3.9
